| time (UTC) | temp F | wind direction | speed MPH | gust MPH | rain 1hr in | rain 24hr in | rain mn in | humidity % | barometer mb |
| 20260902025501 | 74 | 146 | 3.0 | 12.0 | 0.00 | 0.01 | 0.00 | 48 | 1012.0 |
| 20260902025002 | 74 | 174 | 5.0 | 12.0 | 0.00 | 0.01 | 0.00 | 47 | 1012.1 |
| 20260902024601 | 74 | 165 | 4.0 | 12.0 | 0.00 | 0.01 | 0.00 | 47 | 1011.9 |
| 20260902024100 | 74 | 144 | 6.0 | 13.0 | 0.00 | 0.01 | 0.00 | 48 | 1011.9 |
| 20260902023559 | 74 | 162 | 5.0 | 13.0 | 0.00 | 0.01 | 0.00 | 48 | 1011.9 |
| 20260902023103 | 74 | 174 | 3.0 | 8.0 | 0.00 | 0.01 | 0.00 | 48 | 1012.0 |
| 20260902022600 | 74 | 208 | 3.0 | 9.0 | 0.00 | 0.01 | 0.00 | 47 | 1012.0 |
| 20260902022101 | 74 | 195 | 4.0 | 12.0 | 0.00 | 0.01 | 0.00 | 46 | 1011.9 |
| 20260902021608 | 74 | 155 | 3.0 | 12.0 | 0.00 | 0.01 | 0.00 | 45 | 1012.0 |
| 20260902021058 | 75 | 153 | 4.0 | 10.0 | 0.00 | 0.01 | 0.00 | 44 | 1011.9 |
| 20260902020557 | 75 | 148 | 5.0 | 11.0 | 0.00 | 0.01 | 0.00 | 43 | 1012.0 |
| 20260902020058 | 75 | 146 | 5.0 | 12.0 | 0.00 | 0.01 | 0.00 | 42 | 1012.0 |
| 20260902015559 | 75 | 143 | 5.0 | 10.0 | 0.00 | 0.01 | 0.00 | 41 | 1012.1 |
| 20260902015056 | 76 | 152 | 4.0 | 13.0 | 0.00 | 0.01 | 0.00 | 41 | 1012.1 |
| 20260902014559 | 76 | 172 | 5.0 | 13.0 | 0.00 | 0.01 | 0.00 | 40 | 1012.0 |
| 20260902014055 | 77 | 158 | 6.0 | 14.0 | 0.00 | 0.01 | 0.00 | 40 | 1012.1 |
| 20260902013555 | 77 | 154 | 8.0 | 14.0 | 0.00 | 0.01 | 0.00 | 39 | 1012.0 |
| 20260902013055 | 77 | 148 | 8.0 | 14.0 | 0.00 | 0.01 | 0.00 | 39 | 1012.1 |
| 20260902012555 | 78 | 160 | 5.0 | 13.0 | 0.00 | 0.01 | 0.00 | 39 | 1012.1 |
| 20260902012054 | 78 | 141 | 6.0 | 15.0 | 0.00 | 0.01 | 0.00 | 38 | 1012.1 |
| 20260902011554 | 78 | 147 | 7.0 | 18.0 | 0.00 | 0.01 | 0.00 | 38 | 1012.2 |
| 20260902011053 | 78 | 139 | 10.0 | 18.0 | 0.00 | 0.01 | 0.00 | 38 | 1012.2 |
| 20260902010553 | 78 | 138 | 6.0 | 16.0 | 0.00 | 0.01 | 0.00 | 37 | 1012.2 |
| 20260902010052 | 79 | 131 | 10.0 | 19.0 | 0.00 | 0.01 | 0.00 | 38 | 1012.3 |
| 20260902005551 | 79 | 126 | 7.0 | 16.0 | 0.00 | 0.03 | 0.00 | 38 | 1012.4 |
| 20260902005055 | 79 | 133 | 7.0 | 18.0 | 0.00 | 0.03 | 0.00 | 38 | 1012.4 |
| 20260902004551 | 79 | 124 | 7.0 | 21.0 | 0.00 | 0.03 | 0.00 | 38 | 1012.5 |
| 20260902004050 | 80 | 133 | 11.0 | 23.0 | 0.00 | 0.03 | 0.00 | 37 | 1012.5 |
| 20260902003550 | 80 | 139 | 12.0 | 23.0 | 0.00 | 0.03 | 0.00 | 36 | 1012.6 |
| 20260902003050 | 80 | 179 | 10.0 | 22.0 | 0.00 | 0.03 | 0.00 | 36 | 1012.7 |
| 20260902002550 | 80 | 150 | 10.0 | 22.0 | 0.00 | 0.03 | 0.00 | 36 | 1012.6 |
| 20260902002050 | 80 | 137 | 7.0 | 17.0 | 0.00 | 0.03 | 0.00 | 36 | 1012.7 |
| 20260902001549 | 80 | 166 | 8.0 | 18.0 | 0.00 | 0.03 | 0.00 | 36 | 1012.8 |
| 20260902001052 | 80 | 153 | 9.0 | 18.0 | 0.00 | 0.03 | 0.00 | 36 | 1012.8 |
| 20260902000548 | 80 | 146 | 8.0 | 14.0 | 0.00 | 0.03 | 0.00 | 36 | 1012.9 |
| 20260902000052 | 80 | 132 | 9.0 | 16.0 | 0.00 | 0.03 | 0.00 | 37 | 1012.9 |
| 20260901235549 | 79 | 116 | 7.0 | 17.0 | 0.00 | 0.16 | 0.00 | 36 | 1012.9 |
| 20260901235046 | 80 | 156 | 11.0 | 18.0 | 0.00 | 0.16 | 0.00 | 36 | 1012.9 |
| 20260901234557 | 80 | 152 | 10.0 | 18.0 | 0.00 | 0.16 | 0.00 | 36 | 1013.1 |
| 20260901234046 | 80 | 176 | 8.0 | 19.0 | 0.00 | 0.16 | 0.00 | 36 | 1013.0 |
| 20260901233547 | 81 | 141 | 8.0 | 16.0 | 0.00 | 0.16 | 0.00 | 35 | 1012.9 |
| 20260901233046 | 81 | 158 | 6.0 | 18.0 | 0.00 | 0.16 | 0.00 | 36 | 1012.9 |
| 20260901232547 | 80 | 156 | 7.0 | 19.0 | 0.00 | 0.16 | 0.00 | 36 | 1013.0 |
| 20260901232045 | 80 | 131 | 9.0 | 19.0 | 0.00 | 0.16 | 0.00 | 35 | 1013.0 |
| 20260901231543 | 81 | 150 | 4.0 | 15.0 | 0.00 | 0.16 | 0.00 | 36 | 1013.1 |
| 20260901231041 | 81 | 123 | 7.0 | 15.0 | 0.00 | 0.16 | 0.00 | 36 | 1013.2 |
| 20260901230541 | 81 | 125 | 6.0 | 12.0 | 0.00 | 0.16 | 0.00 | 37 | 1013.3 |
| 20260901230045 | 80 | 164 | 7.0 | 13.0 | 0.00 | 0.16 | 0.00 | 36 | 1013.3 |
| 20260901225540 | 80 | 110 | 7.0 | 14.0 | 0.00 | 0.17 | 0.00 | 36 | 1013.3 |
| 20260901225039 | 80 | 140 | 5.0 | 17.0 | 0.00 | 0.17 | 0.00 | 37 | 1013.3 |
| 20260901224539 | 80 | 105 | 10.0 | 17.0 | 0.00 | 0.17 | 0.00 | 37 | 1013.4 |
| 20260901224040 | 80 | 120 | 9.0 | 15.0 | 0.00 | 0.17 | 0.00 | 36 | 1013.6 |
| 20260901223537 | 80 | 153 | 6.0 | 17.0 | 0.00 | 0.17 | 0.00 | 38 | 1013.7 |
| 20260901223036 | 79 | 143 | 8.0 | 17.0 | 0.00 | 0.17 | 0.00 | 38 | 1013.7 |
| 20260901222537 | 79 | 153 | 7.0 | 17.0 | 0.00 | 0.17 | 0.00 | 39 | 1013.8 |
| 20260901222035 | 79 | 103 | 9.0 | 13.0 | 0.00 | 0.17 | 0.00 | 38 | 1013.8 |
| 20260901221553 | 79 | 106 | 5.0 | 14.0 | 0.00 | 0.17 | 0.00 | 38 | 1013.9 |
| 20260901221034 | 78 | 139 | 9.0 | 17.0 | 0.00 | 0.17 | 0.00 | 38 | 1014.1 |
| 20260901220532 | 78 | 115 | 8.0 | 17.0 | 0.00 | 0.17 | 0.00 | 39 | 1014.2 |
| 20260901220032 | 78 | 127 | 6.0 | 15.0 | 0.00 | 0.17 | 0.00 | 39 | 1014.3 |
| 20260901215531 | 77 | 118 | 9.0 | 14.0 | 0.00 | 0.17 | 0.00 | 37 | 1014.3 |
| 20260901215031 | 78 | 124 | 6.0 | 17.0 | 0.00 | 0.17 | 0.00 | 37 | 1014.6 |
| 20260901214530 | 78 | 169 | 10.0 | 17.0 | 0.00 | 0.17 | 0.00 | 37 | 1014.6 |
| 20260901214029 | 78 | 165 | 9.0 | 15.0 | 0.00 | 0.17 | 0.00 | 38 | 1014.7 |
| 20260901213529 | 78 | 134 | 9.0 | 22.0 | 0.00 | 0.17 | 0.00 | 39 | 1014.8 |
| 20260901213054 | 79 | 153 | 11.0 | 22.0 | 0.00 | 0.17 | 0.00 | 37 | 1014.9 |
| 20260901212528 | 80 | 174 | 10.0 | 19.0 | 0.00 | 0.17 | 0.00 | 37 | 1014.8 |
| 20260901212028 | 80 | 199 | 6.0 | 13.0 | 0.00 | 0.17 | 0.00 | 38 | 1014.8 |
| 20260901211538 | 79 | 134 | 3.0 | 13.0 | 0.00 | 0.17 | 0.00 | 41 | 1015.0 |
| 20260901211025 | 78 | 147 | 4.0 | 12.0 | 0.00 | 0.17 | 0.00 | 41 | 1014.9 |
| 20260901210524 | 77 | 160 | 6.0 | 12.0 | 0.00 | 0.17 | 0.00 | 41 | 1015.2 |
| 20260901210027 | 77 | 125 | 5.0 | 13.0 | 0.00 | 0.17 | 0.00 | 41 | 1015.1 |
| 20260901205522 | 77 | 130 | 5.0 | 11.0 | 0.00 | 0.17 | 0.00 | 42 | 1015.3 |
| 20260901205022 | 77 | 165 | 6.0 | 16.0 | 0.00 | 0.17 | 0.00 | 42 | 1015.4 |
| 20260901204521 | 77 | 207 | 5.0 | 16.0 | 0.00 | 0.17 | 0.00 | 42 | 1015.4 |
| 20260901204020 | 77 | 117 | 7.0 | 17.0 | 0.00 | 0.17 | 0.00 | 42 | 1015.3 |
| 20260901203522 | 78 | 113 | 6.0 | 13.0 | 0.00 | 0.17 | 0.00 | 41 | 1015.5 |
| 20260901203031 | 78 | 121 | 6.0 | 17.0 | 0.00 | 0.17 | 0.00 | 41 | 1015.5 |
| 20260901202517 | 78 | 141 | 6.0 | 15.0 | 0.00 | 0.17 | 0.00 | 42 | 1015.7 |
| 20260901202017 | 78 | 163 | 8.0 | 21.0 | 0.00 | 0.17 | 0.00 | 43 | 1015.8 |
| 20260901201515 | 78 | 171 | 8.0 | 21.0 | 0.00 | 0.17 | 0.00 | 43 | 1015.8 |
| 20260901201015 | 77 | 174 | 8.0 | 16.0 | 0.00 | 0.17 | 0.00 | 43 | 1015.9 |
| 20260901200515 | 77 | 141 | 7.0 | 16.0 | 0.00 | 0.17 | 0.00 | 42 | 1015.9 |
| 20260901200025 | 77 | 214 | 8.0 | 15.0 | 0.00 | 0.17 | 0.00 | 42 | 1016.1 |
| 20260901195511 | 77 | 136 | 4.0 | 13.0 | 0.00 | 0.17 | 0.00 | 44 | 1016.3 |
| 20260901195010 | 77 | 139 | 6.0 | 13.0 | 0.00 | 0.17 | 0.00 | 44 | 1016.5 |
| 20260901194510 | 77 | 124 | 5.0 | 14.0 | 0.00 | 0.17 | 0.00 | 44 | 1016.4 |
| 20260901194010 | 76 | 180 | 7.0 | 14.0 | 0.00 | 0.17 | 0.00 | 43 | 1016.5 |
| 20260901193508 | 76 | 243 | 7.0 | 16.0 | 0.00 | 0.17 | 0.00 | 45 | 1016.6 |
| 20260901193007 | 76 | 103 | 4.0 | 17.0 | 0.00 | 0.17 | 0.00 | 46 | 1016.7 |
| 20260901192507 | 75 | 121 | 8.0 | 17.0 | 0.00 | 0.17 | 0.00 | 45 | 1016.8 |
| 20260901192004 | 74 | 143 | 6.0 | 15.0 | 0.00 | 0.17 | 0.00 | 47 | 1016.9 |
| 20260901191503 | 74 | 134 | 7.0 | 15.0 | 0.00 | 0.17 | 0.00 | 46 | 1017.0 |
| 20260901191003 | 74 | 185 | 6.0 | 15.0 | 0.00 | 0.17 | 0.00 | 47 | 1017.0 |
| 20260901190501 | 74 | 166 | 7.0 | 17.0 | 0.00 | 0.17 | 0.00 | 47 | 1017.0 |
| 20260901190003 | 73 | 134 | 9.0 | 18.0 | 0.00 | 0.17 | 0.00 | 46 | 1017.0 |
| 20260901185600 | 73 | 155 | 9.0 | 18.0 | 0.00 | 0.17 | 0.00 | 47 | 1017.1 |
| 20260901185059 | 73 | 160 | 7.0 | 18.0 | 0.00 | 0.17 | 0.00 | 47 | 1017.1 |
| 20260901184559 | 73 | 139 | 9.0 | 16.0 | 0.00 | 0.17 | 0.00 | 46 | 1017.3 |
| 20260901184059 | 73 | 170 | 10.0 | 16.0 | 0.00 | 0.17 | 0.00 | 47 | 1017.3 |
| 20260901183601 | 73 | 153 | 10.0 | 18.0 | 0.00 | 0.17 | 0.00 | 47 | 1017.3 |
| 20260901183058 | 73 | 163 | 8.0 | 18.0 | 0.00 | 0.17 | 0.00 | 48 | 1017.3 |
| 20260901182558 | 73 | 153 | 9.0 | 17.0 | 0.00 | 0.17 | 0.00 | 48 | 1017.3 |
| 20260901182057 | 73 | 123 | 8.0 | 17.0 | 0.00 | 0.17 | 0.00 | 48 | 1017.4 |
| 20260901181556 | 72 | 131 | 8.0 | 18.0 | 0.00 | 0.17 | 0.00 | 50 | 1017.5 |
| 20260901181056 | 72 | 145 | 6.0 | 18.0 | 0.00 | 0.17 | 0.00 | 49 | 1017.5 |
| 20260901180556 | 72 | 141 | 7.0 | 16.0 | 0.00 | 0.17 | 0.00 | 49 | 1017.5 |
| 20260901180056 | 72 | 129 | 9.0 | 15.0 | 0.00 | 0.17 | 0.00 | 49 | 1017.6 |
| 20260901175554 | 72 | 103 | 7.0 | 16.0 | 0.00 | 0.17 | 0.00 | 51 | 1017.6 |
| 20260901175054 | 72 | 146 | 4.0 | 16.0 | 0.00 | 0.17 | 0.00 | 52 | 1017.6 |
| 20260901174553 | 72 | 164 | 8.0 | 18.0 | 0.00 | 0.17 | 0.00 | 52 | 1017.5 |
| 20260901174052 | 71 | 142 | 8.0 | 18.0 | 0.00 | 0.17 | 0.00 | 53 | 1017.5 |
| 20260901173552 | 71 | 140 | 9.0 | 19.0 | 0.00 | 0.17 | 0.00 | 53 | 1017.5 |
| 20260901173052 | 71 | 155 | 12.0 | 17.0 | 0.00 | 0.17 | 0.00 | 51 | 1017.5 |
| 20260901172550 | 71 | 135 | 6.0 | 17.0 | 0.00 | 0.17 | 0.00 | 53 | 1017.5 |
| 20260901172049 | 71 | 126 | 8.0 | 18.0 | 0.00 | 0.17 | 0.00 | 52 | 1017.5 |
| 20260901171552 | 70 | 117 | 8.0 | 18.0 | 0.00 | 0.17 | 0.00 | 54 | 1017.6 |
| 20260901171050 | 70 | 147 | 9.0 | 18.0 | 0.00 | 0.17 | 0.00 | 54 | 1017.6 |
| 20260901170547 | 70 | 150 | 7.0 | 18.0 | 0.00 | 0.17 | 0.00 | 55 | 1017.5 |
| 20260901170049 | 69 | 187 | 8.0 | 20.0 | 0.00 | 0.17 | 0.00 | 56 | 1017.6 |
| 20260901165548 | 69 | 155 | 10.0 | 22.0 | 0.00 | 0.17 | 0.00 | 55 | 1017.6 |
| 20260901165048 | 69 | 145 | 9.0 | 22.0 | 0.00 | 0.17 | 0.00 | 55 | 1017.6 |
| 20260901164545 | 69 | 117 | 10.0 | 19.0 | 0.00 | 0.17 | 0.00 | 56 | 1017.5 |
| 20260901164043 | 69 | 158 | 8.0 | 16.0 | 0.00 | 0.17 | 0.00 | 58 | 1017.4 |
| 20260901163543 | 69 | 172 | 7.0 | 16.0 | 0.00 | 0.17 | 0.00 | 59 | 1017.5 |
| 20260901163041 | 68 | 146 | 8.0 | 16.0 | 0.00 | 0.17 | 0.00 | 60 | 1017.5 |
| 20260901162539 | 67 | 132 | 6.0 | 13.0 | 0.00 | 0.17 | 0.00 | 64 | 1017.6 |
| 20260901162039 | 67 | 131 | 4.0 | 13.0 | 0.00 | 0.17 | 0.00 | 63 | 1017.6 |
| 20260901161540 | 67 | 136 | 3.0 | 20.0 | 0.00 | 0.17 | 0.00 | 63 | 1017.7 |
| 20260901161040 | 66 | 135 | 9.0 | 20.0 | 0.00 | 0.17 | 0.00 | 63 | 1017.6 |
| 20260901160537 | 66 | 154 | 5.0 | 15.0 | 0.00 | 0.17 | 0.00 | 63 | 1017.7 |
| 20260901160038 | 66 | 133 | 7.0 | 18.0 | 0.00 | 0.17 | 0.00 | 62 | 1017.6 |
| 20260901155539 | 66 | 195 | 9.0 | 18.0 | 0.00 | 0.17 | 0.00 | 62 | 1017.6 |
| 20260901155036 | 66 | 155 | 9.0 | 17.0 | 0.00 | 0.17 | 0.00 | 61 | 1017.6 |
| 20260901154535 | 66 | 139 | 10.0 | 18.0 | 0.00 | 0.17 | 0.00 | 60 | 1017.5 |
| 20260901154035 | 66 | 181 | 8.0 | 21.0 | 0.00 | 0.17 | 0.00 | 60 | 1017.5 |
| 20260901153536 | 66 | 129 | 11.0 | 21.0 | 0.00 | 0.17 | 0.00 | 60 | 1017.4 |
| 20260901153036 | 66 | 182 | 10.0 | 20.0 | 0.00 | 0.17 | 0.00 | 60 | 1017.5 |
| 20260901152534 | 66 | 216 | 9.0 | 21.0 | 0.00 | 0.17 | 0.00 | 62 | 1017.6 |
| 20260901152034 | 66 | 156 | 9.0 | 21.0 | 0.00 | 0.17 | 0.00 | 62 | 1017.4 |
| 20260901151535 | 66 | 179 | 10.0 | 17.0 | 0.00 | 0.17 | 0.00 | 61 | 1017.4 |
| 20260901151033 | 66 | 160 | 9.0 | 17.0 | 0.00 | 0.17 | 0.00 | 62 | 1017.4 |
| 20260901150531 | 65 | 116 | 7.0 | 16.0 | 0.00 | 0.17 | 0.00 | 65 | 1017.4 |
| 20260901150029 | 65 | 131 | 7.0 | 16.0 | 0.00 | 0.17 | 0.00 | 66 | 1017.5 |
| 20260901145528 | 64 | 131 | 5.0 | 13.0 | 0.00 | 0.17 | 0.00 | 68 | 1017.6 |
| 20260901145027 | 64 | 150 | 6.0 | 13.0 | 0.00 | 0.17 | 0.00 | 68 | 1017.6 |
| 20260901144527 | 64 | 90 | 6.0 | 16.0 | 0.00 | 0.17 | 0.00 | 68 | 1017.6 |
| 20260901144027 | 64 | 167 | 8.0 | 16.0 | 0.00 | 0.17 | 0.00 | 67 | 1017.5 |
| 20260901143526 | 64 | 131 | 7.0 | 15.0 | 0.00 | 0.17 | 0.00 | 68 | 1017.5 |
| 20260901143025 | 63 | 153 | 8.0 | 12.0 | 0.00 | 0.17 | 0.00 | 68 | 1017.4 |
| 20260901142523 | 63 | 135 | 8.0 | 13.0 | 0.00 | 0.17 | 0.00 | 69 | 1017.5 |
| 20260901142024 | 63 | 120 | 5.0 | 15.0 | 0.00 | 0.17 | 0.00 | 70 | 1017.4 |
| 20260901141530 | 62 | 131 | 6.0 | 15.0 | 0.00 | 0.17 | 0.00 | 70 | 1017.4 |
| 20260901141021 | 62 | 141 | 4.0 | 13.0 | 0.00 | 0.17 | 0.00 | 70 | 1017.4 |
| 20260901140519 | 62 | 129 | 7.0 | 13.0 | 0.00 | 0.17 | 0.00 | 69 | 1017.5 |
| 20260901140018 | 62 | 169 | 7.0 | 14.0 | 0.00 | 0.17 | 0.00 | 68 | 1017.4 |
| 20260901135520 | 61 | 129 | 6.0 | 14.0 | 0.00 | 0.17 | 0.00 | 68 | 1017.3 |
| 20260901135016 | 61 | 168 | 5.0 | 14.0 | 0.00 | 0.17 | 0.00 | 69 | 1017.2 |
| 20260901134517 | 60 | 188 | 3.0 | 11.0 | 0.00 | 0.17 | 0.00 | 70 | 1017.1 |
| 20260901134016 | 60 | 188 | 4.0 | 11.0 | 0.00 | 0.17 | 0.00 | 72 | 1017.1 |
| 20260901133516 | 59 | 154 | 5.0 | 11.0 | 0.00 | 0.17 | 0.00 | 74 | 1017.1 |
| 20260901133016 | 59 | 222 | 4.0 | 11.0 | 0.00 | 0.17 | 0.00 | 76 | 1017.2 |
| 20260901132515 | 59 | 188 | 2.0 | 7.0 | 0.00 | 0.17 | 0.00 | 77 | 1017.1 |
| 20260901132015 | 58 | 158 | 3.0 | 7.0 | 0.00 | 0.17 | 0.00 | 78 | 1017.1 |
| 20260901131522 | 58 | 167 | 2.0 | 8.0 | 0.00 | 0.17 | 0.00 | 78 | 1017.1 |
| 20260901131017 | 59 | 163 | 3.0 | 12.0 | 0.00 | 0.17 | 0.00 | 78 | 1017.1 |
| 20260901130514 | 58 | 154 | 4.0 | 12.0 | 0.00 | 0.17 | 0.00 | 78 | 1017.1 |
| 20260901130013 | 58 | 143 | 3.0 | 10.0 | 0.00 | 0.17 | 0.00 | 78 | 1017.1 |
| 20260901125513 | 58 | 212 | 3.0 | 10.0 | 0.00 | 0.17 | 0.00 | 77 | 1017.1 |
| 20260901125014 | 58 | 128 | 3.0 | 8.0 | 0.00 | 0.17 | 0.00 | 77 | 1017.1 |
| 20260901124513 | 58 | 207 | 3.0 | 7.0 | 0.00 | 0.17 | 0.00 | 76 | 1017.1 |
| 20260901124012 | 58 | 238 | 2.0 | 6.0 | 0.00 | 0.17 | 0.00 | 77 | 1017.1 |
| 20260901123512 | 58 | 235 | 2.0 | 6.0 | 0.00 | 0.17 | 0.00 | 76 | 1017.1 |
| 20260901123018 | 58 | 221 | 3.0 | 6.0 | 0.00 | 0.17 | 0.00 | 75 | 1017.1 |
| 20260901122512 | 58 | 216 | 3.0 | 8.0 | 0.00 | 0.17 | 0.00 | 74 | 1017.1 |
| 20260901122012 | 58 | 224 | 3.0 | 8.0 | 0.00 | 0.17 | 0.00 | 75 | 1017.1 |
| 20260901121511 | 59 | 217 | 3.0 | 8.0 | 0.00 | 0.17 | 0.00 | 75 | 1017.1 |
| 20260901121013 | 59 | 170 | 3.0 | 8.0 | 0.00 | 0.17 | 0.00 | 74 | 1017.1 |
| 20260901120510 | 59 | 160 | 4.0 | 9.0 | 0.00 | 0.17 | 0.00 | 74 | 1017.2 |
| 20260901120028 | 59 | 179 | 3.0 | 9.0 | 0.00 | 0.17 | 0.00 | 73 | 1017.2 |
| 20260901115510 | 59 | 222 | 4.0 | 8.0 | 0.00 | 0.17 | 0.00 | 73 | 1017.2 |
| 20260901115010 | 59 | 179 | 3.0 | 8.0 | 0.00 | 0.17 | 0.00 | 74 | 1017.1 |
| 20260901114515 | 58 | 216 | 2.0 | 9.0 | 0.00 | 0.17 | 0.00 | 75 | 1017.0 |
| 20260901114009 | 58 | 245 | 4.0 | 9.0 | 0.00 | 0.17 | 0.00 | 75 | 1017.0 |
| 20260901113510 | 58 | 226 | 4.0 | 8.0 | 0.00 | 0.17 | 0.00 | 76 | 1016.9 |
| 20260901113009 | 58 | 248 | 2.0 | 5.0 | 0.00 | 0.17 | 0.00 | 76 | 1017.0 |
| 20260901112507 | 58 | 231 | 2.0 | 6.0 | 0.00 | 0.17 | 0.00 | 75 | 1016.9 |
| 20260901112007 | 58 | 217 | 3.0 | 6.0 | 0.00 | 0.17 | 0.00 | 75 | 1016.9 |
| 20260901111506 | 58 | 240 | 2.0 | 6.0 | 0.00 | 0.17 | 0.00 | 75 | 1017.0 |
| 20260901111003 | 59 | 218 | 2.0 | 5.0 | 0.00 | 0.17 | 0.00 | 76 | 1017.1 |
| 20260901110505 | 59 | 219 | 1.0 | 6.0 | 0.00 | 0.17 | 0.00 | 77 | 1017.1 |
| 20260901110003 | 59 | 186 | 3.0 | 8.0 | 0.00 | 0.17 | 0.00 | 78 | 1017.1 |
| 20260901105505 | 59 | 186 | 3.0 | 8.0 | 0.00 | 0.17 | 0.00 | 77 | 1017.2 |
| 20260901105004 | 59 | 207 | 3.0 | 8.0 | 0.00 | 0.17 | 0.00 | 76 | 1017.2 |
| 20260901104502 | 59 | 224 | 3.0 | 6.0 | 0.00 | 0.17 | 0.00 | 75 | 1017.3 |
| 20260901104002 | 59 | 160 | 2.0 | 8.0 | 0.00 | 0.17 | 0.00 | 75 | 1017.2 |
| 20260901103502 | 59 | 154 | 3.0 | 9.0 | 0.00 | 0.17 | 0.00 | 75 | 1017.2 |
| 20260901103006 | 59 | 146 | 4.0 | 9.0 | 0.00 | 0.17 | 0.00 | 75 | 1017.2 |
| 20260901102502 | 59 | 169 | 3.0 | 9.0 | 0.00 | 0.17 | 0.00 | 75 | 1017.2 |
| 20260901102101 | 59 | 210 | 4.0 | 8.0 | 0.00 | 0.17 | 0.00 | 75 | 1017.3 |
| 20260901101600 | 59 | 187 | 2.0 | 7.0 | 0.00 | 0.17 | 0.00 | 75 | 1017.3 |
| 20260901101059 | 59 | 150 | 3.0 | 8.0 | 0.00 | 0.17 | 0.00 | 76 | 1017.3 |
| 20260901100559 | 59 | 173 | 5.0 | 11.0 | 0.00 | 0.17 | 0.00 | 76 | 1017.3 |
| 20260901100059 | 59 | 200 | 5.0 | 12.0 | 0.00 | 0.17 | 0.00 | 77 | 1017.2 |
| 20260901095558 | 59 | 227 | 4.0 | 12.0 | 0.00 | 0.17 | 0.00 | 77 | 1017.3 |
| 20260901095057 | 59 | 195 | 6.0 | 11.0 | 0.00 | 0.17 | 0.00 | 77 | 1017.3 |
| 20260901094557 | 59 | 129 | 4.0 | 11.0 | 0.00 | 0.17 | 0.00 | 77 | 1017.4 |
| 20260901094057 | 59 | 167 | 4.0 | 8.0 | 0.00 | 0.17 | 0.00 | 77 | 1017.4 |
| 20260901093556 | 59 | 164 | 3.0 | 7.0 | 0.00 | 0.17 | 0.00 | 77 | 1017.4 |
| 20260901093056 | 59 | 205 | 2.0 | 8.0 | 0.00 | 0.17 | 0.00 | 77 | 1017.4 |
| 20260901092556 | 59 | 143 | 3.0 | 10.0 | 0.00 | 0.17 | 0.00 | 77 | 1017.3 |
| 20260901092056 | 59 | 225 | 3.0 | 10.0 | 0.00 | 0.17 | 0.00 | 76 | 1017.4 |
| 20260901091608 | 59 | 196 | 2.0 | 6.0 | 0.00 | 0.17 | 0.00 | 75 | 1017.3 |
| 20260901091055 | 59 | 165 | 2.0 | 4.0 | 0.00 | 0.17 | 0.00 | 75 | 1017.4 |
| 20260901090552 | 59 | 154 | 1.0 | 5.0 | 0.00 | 0.17 | 0.00 | 74 | 1017.4 |
| 20260901090055 | 59 | 132 | 2.0 | 9.0 | 0.00 | 0.17 | 0.00 | 74 | 1017.3 |
| 20260901085552 | 60 | 133 | 4.0 | 9.0 | 0.00 | 0.17 | 0.00 | 74 | 1017.3 |
| 20260901085052 | 60 | 174 | 3.0 | 7.0 | 0.00 | 0.17 | 0.00 | 73 | 1017.3 |
| 20260901084555 | 60 | 181 | 3.0 | 7.0 | 0.00 | 0.17 | 0.00 | 73 | 1017.3 |
| 20260901084050 | 60 | 183 | 2.0 | 8.0 | 0.00 | 0.17 | 0.00 | 72 | 1017.4 |
| 20260901083550 | 60 | 144 | 3.0 | 10.0 | 0.00 | 0.17 | 0.00 | 72 | 1017.4 |
| 20260901083049 | 60 | 177 | 3.0 | 10.0 | 0.00 | 0.17 | 0.00 | 71 | 1017.4 |
| 20260901082548 | 60 | 141 | 4.0 | 10.0 | 0.00 | 0.17 | 0.00 | 71 | 1017.4 |
| 20260901082048 | 61 | 226 | 5.0 | 11.0 | 0.00 | 0.17 | 0.00 | 71 | 1017.4 |
| 20260901081549 | 60 | 173 | 5.0 | 11.0 | 0.00 | 0.17 | 0.00 | 71 | 1017.4 |
| 20260901081050 | 60 | 256 | 4.0 | 10.0 | 0.00 | 0.17 | 0.00 | 72 | 1017.5 |
| 20260901080549 | 60 | 203 | 3.0 | 9.0 | 0.00 | 0.17 | 0.00 | 72 | 1017.5 |
| 20260901080048 | 60 | 134 | 2.0 | 4.0 | 0.00 | 0.17 | 0.00 | 72 | 1017.5 |
| 20260901075545 | 61 | 159 | 0.0 | 3.0 | 0.00 | 0.17 | 0.00 | 72 | 1017.6 |
| 20260901075045 | 61 | 184 | 1.0 | 6.0 | 0.00 | 0.17 | 0.00 | 71 | 1017.5 |
| 20260901074545 | 61 | 155 | 3.0 | 6.0 | 0.00 | 0.17 | 0.00 | 71 | 1017.5 |
| 20260901074047 | 61 | 139 | 3.0 | 6.0 | 0.00 | 0.17 | 0.00 | 70 | 1017.5 |
| 20260901073546 | 61 | 155 | 2.0 | 7.0 | 0.00 | 0.17 | 0.00 | 70 | 1017.5 |
| 20260901073045 | 61 | 153 | 2.0 | 6.0 | 0.00 | 0.17 | 0.00 | 70 | 1017.6 |
| 20260901072546 | 61 | 165 | 2.0 | 6.0 | 0.00 | 0.17 | 0.00 | 71 | 1017.7 |
| 20260901072047 | 61 | 194 | 1.0 | 8.0 | 0.00 | 0.17 | 0.00 | 71 | 1017.7 |
| 20260901071556 | 61 | 214 | 4.0 | 8.0 | 0.00 | 0.17 | 0.00 | 71 | 1017.8 |
| 20260901071044 | 61 | 198 | 3.0 | 8.0 | 0.00 | 0.17 | 0.00 | 71 | 1017.7 |
| 20260901070542 | 61 | 219 | 3.0 | 9.0 | 0.00 | 0.17 | 0.00 | 71 | 1017.6 |
| 20260901070042 | 61 | 133 | 4.0 | 9.0 | 0.00 | 0.17 | 0.00 | 70 | 1017.4 |
| 20260901065544 | 61 | 177 | 3.0 | 8.0 | 0.00 | 0.17 | 0.00 | 70 | 1017.4 |
| 20260901065042 | 61 | 161 | 2.0 | 9.0 | 0.00 | 0.17 | 0.00 | 71 | 1017.4 |
| 20260901064542 | 61 | 138 | 4.0 | 9.0 | 0.00 | 0.17 | 0.00 | 71 | 1017.3 |
| 20260901064041 | 61 | 143 | 4.0 | 8.0 | 0.00 | 0.17 | 0.00 | 71 | 1017.4 |
| 20260901063541 | 61 | 155 | 3.0 | 12.0 | 0.00 | 0.17 | 0.00 | 71 | 1017.4 |
| 20260901063040 | 61 | 149 | 3.0 | 12.0 | 0.00 | 0.17 | 0.00 | 71 | 1017.4 |
| 20260901062539 | 61 | 149 | 1.0 | 12.0 | 0.00 | 0.17 | 0.00 | 71 | 1017.4 |
| 20260901062042 | 61 | 155 | 4.0 | 12.0 | 0.00 | 0.17 | 0.00 | 71 | 1017.4 |
| 20260901061539 | 61 | 155 | 3.0 | 11.0 | 0.00 | 0.17 | 0.00 | 72 | 1017.4 |
| 20260901061038 | 61 | 182 | 4.0 | 8.0 | 0.00 | 0.17 | 0.00 | 73 | 1017.4 |
| 20260901060540 | 61 | 174 | 3.0 | 9.0 | 0.00 | 0.17 | 0.00 | 74 | 1017.3 |
| 20260901060035 | 61 | 200 | 3.0 | 11.0 | 0.00 | 0.17 | 0.00 | 74 | 1017.2 |
| 20260901055535 | 61 | 151 | 5.0 | 11.0 | 0.00 | 0.17 | 0.17 | 75 | 1017.2 |
| 20260901055035 | 61 | 191 | 4.0 | 10.0 | 0.00 | 0.17 | 0.17 | 77 | 1017.3 |
| 20260901054536 | 61 | 148 | 5.0 | 11.0 | 0.00 | 0.17 | 0.17 | 78 | 1017.4 |
| 20260901054035 | 61 | 150 | 3.0 | 10.0 | 0.00 | 0.17 | 0.17 | 77 | 1017.4 |
| 20260901053535 | 61 | 98 | 3.0 | 10.0 | 0.00 | 0.17 | 0.17 | 77 | 1017.3 |
| 20260901053034 | 61 | 212 | 4.0 | 11.0 | 0.00 | 0.17 | 0.17 | 78 | 1017.4 |
| 20260901052534 | 61 | 160 | 5.0 | 11.0 | 0.00 | 0.17 | 0.17 | 77 | 1017.7 |
| 20260901052034 | 61 | 151 | 3.0 | 11.0 | 0.00 | 0.17 | 0.17 | 76 | 1017.8 |
| 20260901051534 | 61 | 226 | 3.0 | 10.0 | 0.00 | 0.17 | 0.17 | 76 | 1017.9 |
| 20260901051034 | 61 | 248 | 2.0 | 8.0 | 0.00 | 0.17 | 0.17 | 77 | 1017.9 |
| 20260901050534 | 61 | 217 | 2.0 | 8.0 | 0.00 | 0.17 | 0.17 | 77 | 1018.1 |
| 20260901050034 | 61 | 220 | 4.0 | 7.0 | 0.00 | 0.17 | 0.17 | 76 | 1018.1 |
| 20260901045534 | 61 | 226 | 1.0 | 5.0 | 0.00 | 0.17 | 0.17 | 75 | 1018.2 |
| 20260901045033 | 61 | 185 | 0.0 | 10.0 | 0.00 | 0.17 | 0.17 | 75 | 1018.2 |
| 20260901044533 | 61 | 146 | 3.0 | 10.0 | 0.00 | 0.17 | 0.17 | 74 | 1018.3 |
| 20260901044033 | 61 | 157 | 5.0 | 9.0 | 0.00 | 0.17 | 0.17 | 73 | 1018.3 |
| 20260901043533 | 61 | 179 | 2.0 | 11.0 | 0.00 | 0.17 | 0.17 | 72 | 1018.2 |
| 20260901043032 | 62 | 143 | 6.0 | 11.0 | 0.00 | 0.17 | 0.17 | 71 | 1018.2 |
| 20260901042535 | 62 | 121 | 4.0 | 9.0 | 0.00 | 0.17 | 0.17 | 70 | 1018.2 |
| 20260901042132 | 62 | 143 | 4.0 | 11.0 | 0.00 | 0.17 | 0.17 | 69 | 1018.2 |
| 20260901041532 | 62 | 146 | 5.0 | 11.0 | 0.00 | 0.17 | 0.17 | 70 | 1018.2 |
| 20260901041032 | 62 | 170 | 1.0 | 9.0 | 0.00 | 0.17 | 0.17 | 70 | 1018.1 |
| 20260901040532 | 62 | 233 | 3.0 | 10.0 | 0.00 | 0.17 | 0.17 | 69 | 1018.1 |
| 20260901040032 | 62 | 180 | 3.0 | 13.0 | 0.00 | 0.17 | 0.17 | 68 | 1018.0 |
| 20260901035533 | 62 | 165 | 4.0 | 13.0 | 0.00 | 0.17 | 0.17 | 68 | 1017.9 |
| 20260901035031 | 62 | 200 | 3.0 | 12.0 | 0.00 | 0.17 | 0.17 | 68 | 1017.8 |
| 20260901034533 | 62 | 183 | 4.0 | 12.0 | 0.00 | 0.17 | 0.17 | 69 | 1017.7 |
| 20260901034034 | 61 | 139 | 4.0 | 9.0 | 0.00 | 0.17 | 0.17 | 74 | 1017.8 |
| 20260901033531 | 61 | 167 | 4.0 | 11.0 | 0.00 | 0.17 | 0.17 | 75 | 1017.8 |
| 20260901033032 | 62 | 237 | 3.0 | 11.0 | 0.00 | 0.17 | 0.17 | 75 | 1017.9 |
| 20260901032531 | 61 | 264 | 4.0 | 11.0 | 0.00 | 0.17 | 0.17 | 75 | 1017.9 |
| 20260901032035 | 61 | 209 | 2.0 | 11.0 | 0.01 | 0.17 | 0.17 | 76 | 1017.8 |
| 20260901031532 | 61 | 139 | 5.0 | 11.0 | 0.01 | 0.17 | 0.17 | 76 | 1017.7 |
| 20260901031029 | 61 | 221 | 4.0 | 12.0 | 0.01 | 0.17 | 0.17 | 76 | 1017.5 |
| 20260901030529 | 61 | 154 | 4.0 | 12.0 | 0.01 | 0.17 | 0.17 | 77 | 1017.5 |
| 20260901030029 | 61 | 211 | 4.0 | 12.0 | 0.01 | 0.17 | 0.17 | 77 | 1017.4 |